Location: Ajisawe
(8.4333°N, 4.3833°E)
Time: 12:35:49
(UTC+00:00)

Courier 1B Rocket - Pass Details

Date: 25 April 2021
Orbit: 920 x 1202 km, 28.2° (Epoch: 07 May)

Event Time Altitude Azimuth Distance (km) Brightness Sun altitude
Rises 13:43:18 0° 237° (WSW) 3,620 8.3 59.5°
Reaches altitude 10° 13:45:58 10° 235° (SW) 2,647 7.7 58.8°
Maximum altitude 13:52:17 74° 150° (SSE) 953 5.9 57.3°
Drops below altitude 10° 13:58:30 10° 66° (ENE) 2,604 7.1 55.8°
Sets 14:01:06 0° 64° (ENE) 3,558 7.7 55.1°
